This is the latest recevied weather packets stored in our database for station/object CT2IRJ-11. If no packets are shown the sender has not sent any weather packets the latest 10 day(s).
| Time | Temp. | Humidity | Pressure | Rain* | Wind** | Luminosity | Snow |
|---|---|---|---|---|---|---|---|
| 1777804410 | 20° C | 67% | 1014.9 hPa | 0 mm | - | 713 W/m² | - |
| 1777804111 | 18.89° C | 66% | 1014.9 hPa | 0 mm | - | 736 W/m² | - |
| 1777803810 | 19.44° C | 67% | 1014.9 hPa | 0 mm | - | 319 W/m² | - |
| 1777803511 | 18.89° C | 67% | 1014.9 hPa | 0 mm | - | 266 W/m² | - |
| 1777803210 | 20° C | 65% | 1014.9 hPa | 0 mm | - | 359 W/m² | - |
| 1777802909 | 20° C | 64% | 1014.9 hPa | 0 mm | - | 255 W/m² | - |
| 1777802610 | 20° C | 66% | 1014.9 hPa | 0 mm | - | 570 W/m² | - |
| 1777802309 | 20.56° C | 65% | 1014.9 hPa | 0 mm | - | 199 W/m² | - |
| 1777802009 | 21.11° C | 63% | 1014.9 hPa | 0 mm | - | 347 W/m² | - |
| 1777801709 | 20.56° C | 66% | 1014.9 hPa | 0 mm | - | 485 W/m² | - |
| 1777801409 | 18.89° C | 69% | 1014.9 hPa | 0 mm | - | 869 W/m² | - |
| 1777801109 | 18.89° C | 72% | 1014.9 hPa | 0 mm | - | 367 W/m² | - |
| 1777800809 | 18.33° C | 71% | 1014.9 hPa | 0 mm | - | 591 W/m² | - |
| 1777800510 | 17.78° C | 74% | 1014.9 hPa | 0 mm | - | 514 W/m² | - |
| 1777800209 | 17.78° C | 75% | 1014.9 hPa | 0 mm | - | 405 W/m² | - |
| 1777799910 | 18.33° C | 77% | 1014.9 hPa | 0 mm | - | 668 W/m² | - |
| 1777799609 | 17.78° C | 76% | 1014.9 hPa | 0 mm | - | 480 W/m² | - |
| 1777799309 | 17.78° C | 78% | 1014.9 hPa | 0 mm | - | 576 W/m² | - |
| 1777799009 | 17.22° C | 80% | 1014.9 hPa | 0 mm | - | 545 W/m² | - |
| 1777798709 | 16.67° C | 82% | 1015.2 hPa | 0 mm | - | 511 W/m² | - |
| 1777798409 | 16.11° C | 86% | 1015.2 hPa | 0 mm | - | 360 W/m² | - |
| 1777798109 | 16.11° C | 87% | 1014.9 hPa | 0 mm | - | 154 W/m² | - |
| 1777797809 | 15.56° C | 86% | 1015.2 hPa | 0 mm | - | 103 W/m² | - |
| 1777797510 | 16.11° C | 86% | 1014.9 hPa | 0 mm | - | 98 W/m² | - |
| 1777796924 | 16.67° C | 86% | 1015.2 hPa | 0 mm | - | 149 W/m² | - |
* Rain latest hour (hover to see other rain measurements)
** Current wind speed in m/s (hover to see current wind gust speed)